SCP
0 0 0 0 0 0 0 0 0 0 0 0 0 0 0 0 0 0 0 0 0 0 0 0 0 0 0 0 0 1 1 0 0 0 0 0 0 0 0 0 0 0 0
0 0 0 0 0 0 0 0 0 0 0 0 0 0 0 0 0 0 0 0 0 0 0 0 0 0 0 0 0 0 0 0 0 0 0 0 0 0 0 0 0 0 0
0 0 0 0 0 0 0 0 0 0 0 0 0 0 0 0 0 0 0 0 0 0 0 0 0 0 0 0 0 0 0 0 0 0 0 0 0 0 0 0 0 0 0
0 0 0 0 0 0 0 0 0 0 0 0 0 0 0 0 0 0 0 0 0 0 0 0 0 0 0 0 0 0 0 0 0 0 0 0 0 0 0 0 0 0 0
0 0 0 0 0 0 0 0 0 0 0 0 0 0 0 0 0 0 0 0 0 0 0 0 0 0 0 0 0 0 0 0 0 0 0 0 0 0 0 0 0 0 0
0 0 0 0 0 0 0 0 0 0 0 0 0 0 0 0 0 0 0 0 0 0 0 0 0 0 0 0 0 0 0 0 0 0 0 0 0 0 0 0 0 0 0
0 0 0 0 0 0 0 0 0 0 0 0 0 0 0 0 0 0 0 0 0 0 0 0 0 0 0 0 0 0 0 0 0 0 0 0 0 0 0 0 0 0 0
0 0 0 0 0 0 0 0 0 0 0 0 0 0 0 0 0 0 0 0 0 0 0 0 0 0 0 0 0 0 0 0 0 0 0 0 0 0 0 0 0 0 0
0 0 0 0 0 0 0 0 0 0 0 0 0 0 0 0 0 0 0 0 0 0 0 0 0 0 0 0 0 0 0 0 0 0 0 0 0 0 0 0 0 0 0
0 0 0 0 0 0 0 0 0 0 0 0 0 0 0 0 0 0 0 0 0 0 0 0 0 0 0 0 0 0 0 0 0 0 0 0 0 0 0 0 0 0 0
0 0 0 0 0 0 0 0 0 0 0 0 0 0 0 0 0 0 0 0 0 0 0 0 0 0 0 0 0 0 0 0 0 0 0 0 0 0 0 0 0 0 0
0 0 0 0 0 0 0 0 0 0 0 0 0 0 0 0 0 0 0 0 0 0 0 0 0 0 0 0 0 0 0 0 0 0 0 0 0 0 0 0 0 -0 -0
0 0 0 0 0 0 0 0 0 0 0 0 0 0 0 0 0 0 0 0 0 0 0 0 0 0 0 0 0 0 0 0 0 0 0 0 0 0 0 0 0 -0 -0
0 0 0 0 0 0 0 0 0 0 0 0 0 0 0 0 0 0 0 0 0 0 0 0 0 0 0 0 0 0 0 0 0 0 0 0 0 0 0 0 0 0 0
0 0 0 0 0 -0 0 0 0 0 0 0 0 0 0 0 0 0 0 0 0 0 0 0 0 0 0 0 0 0 0 0 0 0 0 0 0 0 0 0 0 0 0
0 0 0 0 -0 -0 0 0 0 0 0 0 0 0 0 0 0 0 0 0 0 0 0 0 0 0 0 0 0 0 0 0 0 0 0 0 0 0 0 0 0 0 0
0 0 0 0 -0 -0 0 0 0 0 0 0 0 0 0 0 0 0 0 0 0 0 0 0 0 0 0 0 0 0 0 0 0 0 0 0 0 0 0 0 0 0 0
0 0 0 -0 -0 0 0 0 0 0 0 0 0 0 0 0 0 0 0 0 0 0 0 0 0 0 0 0 0 0 0 0 0 0 0 0 0 0 0 0 0 0 -0
0 0 0 0 0 0 0 0 0 0 0 0 0 0 0 0 0 0 0 0 0 0 0 0 0 0 0 0 0 0 0 0 0 0 0 0 0 0 0 0 0 0 -0
0 0 0 0 0 0 0 0 0 0 0 0 0 0 0 0 0 0 0 0 0 0 0 0 0 0 0 0 0 0 0 0 0 0 0 0 0 0 0 0 0 -0 0
0 0 0 0 0 0 0 0 0 0 0 0 0 0 0 0 0 0 0 0 0 0 0 0 0 0 0 0 0 0 0 0 0 0 0 0 0 0 0 0 0 -0 -0
0 0 0 0 0 0 0 0 0 0 0 0 0 0 0 0 0 0 0 0 0 0 0 0 0 0 0 0 0 0 0 0 0 0 0 0 0 0 0 0 0 0 0
0 0 0 -0 0 0 -0 0 0 0 0 0 0 0 0 0 0 0 0 0 0 0 0 0 0 0 0 0 0 -0 0 0 0 0 0 0 0 0 0 0 0 0 0
0 0 0 0 0 0 0 0 0 0 0 0 0 0 0 0 0 0 0 0 0 0 0 0 0 0 0 -0 0 0 0 0 0 0 0 0 0 0 0 0 0 0 0
0 0 0 0 -0 0 0 0 0 0 0 0 0 0 0 0 0 0 0 0 0 0 0 0 0 0 0 -0 0 0 0 0 0 0 0 0 0 0 0 0 0 0 0
0 0 0 -0 -0 0 -0 -0 0 0 0 0 0 0 0 0 0 0 0 0 0 0 0 0 0 0 0 0 0 0 0 0 0 0 0 0 0 0 0 0 0 0 0
Wind_Speed_500mb
36 33 27 21 18 19 16 14 10 8 4 4 3 10 15 21 24 26 34 37 33 27 22 24 29 33 36 38 43 48 52 56 51 52 52 52 52 53 56 54 56 54 56
34 32 29 23 19 19 15 10 8 4 5 8 9 9 17 24 27 34 34 27 21 19 24 30 33 36 41 44 51 53 56 48 43 43 47 50 51 53 57 58 56 54 56
34 32 28 22 18 17 11 8 5 7 5 8 13 21 25 31 31 27 28 28 31 33 35 39 41 39 42 46 47 47 41 38 38 40 44 50 52 51 56 56 59 59 58
33 34 28 22 15 14 10 7 8 9 11 11 15 21 28 28 28 27 26 27 31 35 34 32 37 42 42 37 31 30 33 35 41 47 53 59 59 59 57 56 63 61 57
31 27 27 17 16 12 16 13 11 12 13 16 21 26 26 25 23 19 22 26 28 30 34 41 42 39 36 34 33 36 39 46 54 59 60 57 57 57 57 55 55 56 54
29 21 16 10 13 14 16 12 9 13 18 24 26 24 19 18 19 20 21 20 27 37 41 41 37 34 33 35 39 45 50 55 60 62 61 57 61 61 62 59 54 52 54
25 19 14 12 13 15 15 14 16 19 23 20 16 10 5 10 14 16 21 27 35 41 39 35 32 33 38 44 49 52 55 58 62 60 58 57 60 56 53 51 53 53 52
23 18 12 15 13 13 17 18 16 16 11 5 4 6 7 15 23 27 31 32 35 38 33 31 34 38 43 50 54 58 59 61 64 59 68 62 57 53 51 50 50 53 51
23 19 10 12 17 17 21 22 17 7 3 3 3 4 6 6 20 24 22 23 35 32 32 29 37 40 49 52 58 61 61 63 61 65 67 62 54 52 51 51 54 56 54
25 21 10 16 16 18 23 18 6 4 4 3 11 13 15 16 11 16 14 20 30 28 29 30 37 37 54 55 59 60 63 63 61 70 68 58 57 54 52 52 50 51 53
32 21 10 15 13 18 17 8 6 7 4 9 13 14 16 16 16 16 24 36 28 27 33 33 40 41 54 58 64 65 62 61 64 63 59 58 53 51 47 47 49 50 50
32 17 3 13 16 14 10 10 10 5 10 13 13 13 12 9 14 15 25 36 39 39 41 46 44 56 55 60 62 66 64 62 62 56 56 52 46 45 45 45 45 47 48
31 21 15 14 13 7 12 12 9 8 10 11 11 11 14 14 15 18 22 30 42 51 50 49 42 53 55 60 66 62 57 60 56 57 53 48 40 46 46 50 50 49 45
14 18 13 20 6 15 19 12 8 8 9 10 12 16 17 17 20 22 24 32 44 51 52 46 56 52 53 61 65 55 54 55 59 57 44 36 38 46 49 54 53 53 50
48 21 25 29 31 29 19 9 3 7 6 9 14 17 16 20 23 26 30 35 38 30 45 48 58 54 58 66 65 61 62 67 64 44 35 36 40 41 47 50 49 38 27
42 41 38 36 30 23 12 4 4 5 6 11 15 16 20 24 26 29 33 36 34 35 35 55 57 58 61 66 62 67 67 69 65 40 35 39 40 43 45 44 40 36 35
57 47 46 41 30 20 9 5 8 9 7 11 15 17 22 25 27 31 34 34 35 38 48 58 56 58 61 67 69 68 74 67 61 42 47 45 39 43 44 38 32 39 42
53 48 44 37 28 17 11 9 9 11 9 11 16 20 23 25 28 31 33 35 36 35 44 57 63 63 64 66 75 81 77 66 58 52 50 50 41 40 36 32 18 40 55
55 50 42 34 24 18 16 14 11 10 10 14 19 23 26 27 28 31 33 34 35 38 40 50 60 61 67 76 80 79 80 70 55 60 70 41 40 37 26 29 35 48 55
56 50 42 31 26 21 19 16 12 11 10 17 21 25 27 29 32 33 34 35 37 41 45 49 57 64 74 79 79 81 85 79 66 69 65 47 42 30 35 38 44 49 49
58 51 40 34 28 26 22 15 11 9 15 19 23 23 26 32 33 34 34 33 36 40 43 49 54 61 71 79 81 79 79 79 69 68 77 56 48 34 44 43 47 50 41
54 44 40 35 33 29 22 14 12 13 19 19 18 22 29 30 32 32 29 29 33 36 39 45 50 58 66 68 73 75 75 77 66 59 77 56 41 41 43 42 49 44 43
60 46 41 36 35 28 19 15 13 16 16 16 22 26 28 31 30 30 27 26 24 26 32 41 50 53 65 65 65 70 70 68 59 46 70 52 40 41 45 51 48 43 45
51 45 43 37 32 30 15 11 12 14 15 17 22 27 28 29 33 33 32 26 24 23 30 41 42 43 51 58 53 55 61 65 58 37 61 45 41 46 58 56 45 43 50
51 47 42 36 30 29 15 11 15 14 15 20 23 25 27 29 33 33 32 28 27 27 28 34 34 31 38 51 47 55 64 70 72 45 59 45 44 38 63 66 51 45 50
54 49 47 37 27 21 17 14 11 12 17 20 21 23 26 30 32 33 35 39 43 48 47 44 41 36 41 50 47 48 54 60 65 43 59 54 60 51 29 63 63 53 55
Wind_Direction_500mb
201 192 187 177 172 161 149 154 170 164 215 260 297 314 307 290 294 301 306 307 296 285 269 274 285 287 287 286 290 293 296 298 296 293 294 298 300 300 299 301 301 298 297
202 190 178 171 171 170 162 177 197 206 248 265 288 285 293 294 300 300 301 291 279 279 282 290 296 295 291 291 295 299 298 300 296 294 298 300 298 297 296 295 298 298 295
198 186 181 184 183 184 186 175 180 229 254 270 277 293 297 301 301 300 297 289 289 291 291 295 295 295 300 304 303 303 306 300 295 294 293 296 302 302 302 300 299 298 297
189 193 195 195 188 193 197 224 233 252 269 292 283 289 299 300 292 289 292 294 295 299 302 305 309 311 314 314 308 308 309 303 301 301 301 300 300 302 299 298 297 296 300
195 204 209 207 214 232 235 237 258 267 277 294 300 306 302 292 287 282 291 296 299 306 314 316 316 315 316 315 313 309 309 309 306 304 306 307 303 300 303 303 303 301 300
196 204 209 234 231 245 233 246 263 277 292 301 302 304 298 281 274 283 290 300 310 315 320 319 319 319 321 319 314 311 309 310 309 311 310 304 300 299 302 303 305 303 301
199 203 212 233 230 242 259 266 277 291 297 298 295 296 286 264 262 274 285 304 316 322 325 322 321 319 318 318 318 316 315 315 317 317 311 305 300 300 301 299 299 299 300
194 194 219 226 242 258 279 284 299 298 294 296 221 250 263 273 274 275 286 306 324 322 319 318 319 320 320 320 322 323 321 318 319 316 319 314 311 306 305 303 301 297 298
180 184 213 201 246 270 294 302 304 274 150 151 309 338 302 287 306 288 295 308 318 322 326 326 322 319 323 321 324 325 326 327 324 318 316 318 313 310 307 301 296 298 295
178 174 206 236 265 289 303 300 268 192 198 329 320 325 314 307 319 304 318 318 337 333 327 316 319 312 328 328 329 332 333 328 319 312 316 317 316 313 311 306 305 305 303
172 166 198 243 287 298 287 263 253 241 330 331 321 314 314 323 317 317 319 334 344 339 329 321 326 321 328 331 336 335 330 323 314 313 315 317 319 320 322 318 312 308 306
166 163 228 288 256 248 273 242 233 300 335 327 326 329 337 340 347 350 334 337 334 337 338 334 331 331 331 336 335 333 330 323 317 312 318 321 323 329 322 317 314 311 307
196 200 199 240 253 286 250 228 263 314 328 333 347 5 23 13 9 357 346 329 328 338 338 335 334 336 340 340 336 333 333 329 328 320 318 315 321 322 313 311 309 304 303
185 177 176 235 248 241 228 225 292 335 2 356 26 35 29 15 12 352 346 342 339 336 334 340 334 344 339 342 339 340 342 337 337 328 318 318 325 319 312 313 310 307 302
182 198 211 195 209 205 194 230 298 13 20 43 44 36 20 9 1 355 350 345 340 332 326 334 333 342 346 344 348 352 352 353 345 341 333 332 326 318 317 318 320 323 319
183 194 197 194 189 188 190 227 89 78 60 54 44 27 14 5 358 351 345 340 341 336 314 324 335 340 349 345 352 354 353 351 354 355 347 337 332 322 319 317 319 315 307
184 190 186 184 183 178 184 138 118 105 77 50 37 14 2 359 348 343 340 344 347 333 324 326 338 344 348 344 351 359 355 355 354 356 350 344 334 327 322 319 317 319 310
182 181 181 177 170 165 154 138 122 111 75 39 18 358 353 354 343 345 342 347 343 331 326 327 339 346 346 349 359 359 359 1 2 2 355 351 340 338 340 343 323 312 318
177 170 173 166 157 149 141 134 118 93 52 18 357 349 352 350 353 348 344 343 339 334 333 331 336 346 348 359 3 360 2 6 12 10 3 353 355 358 348 345 328 324 329
172 168 159 152 145 139 132 121 105 68 24 1 353 352 357 357 355 348 346 342 338 336 340 341 343 349 358 1 360 358 0 5 7 11 12 8 9 3 358 346 345 344 340
160 157 150 142 136 127 118 108 86 48 14 355 358 1 360 0 351 351 349 341 335 339 342 347 348 354 360 359 358 357 359 3 8 6 5 13 9 13 3 0 357 355 5
153 148 142 138 133 128 115 100 63 28 7 0 1 6 9 6 4 2 356 340 337 344 347 347 354 357 1 358 357 358 1 1 355 0 355 16 18 20 14 16 8 14 20
158 152 143 143 136 120 104 84 43 13 11 6 13 13 15 14 6 8 4 358 351 349 348 351 358 0 358 359 358 356 2 7 360 353 354 12 26 34 33 31 22 26 26
145 145 142 144 138 121 114 83 43 26 18 16 18 18 16 16 11 17 14 8 6 360 0 4 359 2 1 357 2 0 4 8 12 15 10 2 29 42 43 40 38 35 34
145 145 147 147 141 129 114 71 48 31 15 22 17 14 17 18 16 16 15 15 20 22 13 9 3 359 359 4 11 5 12 13 15 15 24 20 21 39 46 43 47 46 47
147 151 150 143 135 121 102 73 54 31 21 20 17 16 17 24 18 19 14 16 18 15 11 10 11 12 18 15 27 22 21 16 24 17 27 31 36 29 36 45 48 53 58
Wind_Speed_850mb
36 33 27 21 18 19 16 14 10 8 4 4 3 10 15 21 24 26 34 37 33 27 22 24 29 33 36 38 43 48 52 56 51 52 52 52 52 53 56 54 56 54 56
34 32 29 23 19 19 15 10 8 4 5 8 9 9 17 24 27 34 34 27 21 19 24 30 33 36 41 44 51 53 56 48 43 43 47 50 51 53 57 58 56 54 56
34 32 28 22 18 17 11 8 5 7 5 8 13 21 25 31 31 27 28 28 31 33 35 39 41 39 42 46 47 47 41 38 38 40 44 50 52 51 56 56 59 59 58
33 34 28 22 15 14 10 7 8 9 11 11 15 21 28 28 28 27 26 27 31 35 34 32 37 42 42 37 31 30 33 35 41 47 53 59 59 59 57 56 63 61 57
31 27 27 17 16 12 16 13 11 12 13 16 21 26 26 25 23 19 22 26 28 30 34 41 42 39 36 34 33 36 39 46 54 59 60 57 57 57 57 55 55 56 54
29 21 16 10 13 14 16 12 9 13 18 24 26 24 19 18 19 20 21 20 27 37 41 41 37 34 33 35 39 45 50 55 60 62 61 57 61 61 62 59 54 52 54
25 19 14 12 13 15 15 14 16 19 23 20 16 10 5 10 14 16 21 27 35 41 39 35 32 33 38 44 49 52 55 58 62 60 58 57 60 56 53 51 53 53 52
23 18 12 15 13 13 17 18 16 16 11 5 4 6 7 15 23 27 31 32 35 38 33 31 34 38 43 50 54 58 59 61 64 59 68 62 57 53 51 50 50 53 51
23 19 10 12 17 17 21 22 17 7 3 3 3 4 6 6 20 24 22 23 35 32 32 29 37 40 49 52 58 61 61 63 61 65 67 62 54 52 51 51 54 56 54
25 21 10 16 16 18 23 18 6 4 4 3 11 13 15 16 11 16 14 20 30 28 29 30 37 37 54 55 59 60 63 63 61 70 68 58 57 54 52 52 50 51 53
32 21 10 15 13 18 17 8 6 7 4 9 13 14 16 16 16 16 24 36 28 27 33 33 40 41 54 58 64 65 62 61 64 63 59 58 53 51 47 47 49 50 50
32 17 3 13 16 14 10 10 10 5 10 13 13 13 12 9 14 15 25 36 39 39 41 46 44 56 55 60 62 66 64 62 62 56 56 52 46 45 45 45 45 47 48
31 21 15 14 13 7 12 12 9 8 10 11 11 11 14 14 15 18 22 30 42 51 50 49 42 53 55 60 66 62 57 60 56 57 53 48 40 46 46 50 50 49 45
14 18 13 20 6 15 19 12 8 8 9 10 12 16 17 17 20 22 24 32 44 51 52 46 56 52 53 61 65 55 54 55 59 57 44 36 38 46 49 54 53 53 50
48 21 25 29 31 29 19 9 3 7 6 9 14 17 16 20 23 26 30 35 38 30 45 48 58 54 58 66 65 61 62 67 64 44 35 36 40 41 47 50 49 38 27
42 41 38 36 30 23 12 4 4 5 6 11 15 16 20 24 26 29 33 36 34 35 35 55 57 58 61 66 62 67 67 69 65 40 35 39 40 43 45 44 40 36 35
57 47 46 41 30 20 9 5 8 9 7 11 15 17 22 25 27 31 34 34 35 38 48 58 56 58 61 67 69 68 74 67 61 42 47 45 39 43 44 38 32 39 42
53 48 44 37 28 17 11 9 9 11 9 11 16 20 23 25 28 31 33 35 36 35 44 57 63 63 64 66 75 81 77 66 58 52 50 50 41 40 36 32 18 40 55
55 50 42 34 24 18 16 14 11 10 10 14 19 23 26 27 28 31 33 34 35 38 40 50 60 61 67 76 80 79 80 70 55 60 70 41 40 37 26 29 35 48 55
56 50 42 31 26 21 19 16 12 11 10 17 21 25 27 29 32 33 34 35 37 41 45 49 57 64 74 79 79 81 85 79 66 69 65 47 42 30 35 38 44 49 49
58 51 40 34 28 26 22 15 11 9 15 19 23 23 26 32 33 34 34 33 36 40 43 49 54 61 71 79 81 79 79 79 69 68 77 56 48 34 44 43 47 50 41
54 44 40 35 33 29 22 14 12 13 19 19 18 22 29 30 32 32 29 29 33 36 39 45 50 58 66 68 73 75 75 77 66 59 77 56 41 41 43 42 49 44 43
60 46 41 36 35 28 19 15 13 16 16 16 22 26 28 31 30 30 27 26 24 26 32 41 50 53 65 65 65 70 70 68 59 46 70 52 40 41 45 51 48 43 45
51 45 43 37 32 30 15 11 12 14 15 17 22 27 28 29 33 33 32 26 24 23 30 41 42 43 51 58 53 55 61 65 58 37 61 45 41 46 58 56 45 43 50
51 47 42 36 30 29 15 11 15 14 15 20 23 25 27 29 33 33 32 28 27 27 28 34 34 31 38 51 47 55 64 70 72 45 59 45 44 38 63 66 51 45 50
54 49 47 37 27 21 17 14 11 12 17 20 21 23 26 30 32 33 35 39 43 48 47 44 41 36 41 50 47 48 54 60 65 43 59 54 60 51 29 63 63 53 55
Wind_Direction_850mb
201 192 187 177 172 161 149 154 170 164 215 260 297 314 307 290 294 301 306 307 296 285 269 274 285 287 287 286 290 293 296 298 296 293 294 298 300 300 299 301 301 298 297
202 190 178 171 171 170 162 177 197 206 248 265 288 285 293 294 300 300 301 291 279 279 282 290 296 295 291 291 295 299 298 300 296 294 298 300 298 297 296 295 298 298 295
198 186 181 184 183 184 186 175 180 229 254 270 277 293 297 301 301 300 297 289 289 291 291 295 295 295 300 304 303 303 306 300 295 294 293 296 302 302 302 300 299 298 297
189 193 195 195 188 193 197 224 233 252 269 292 283 289 299 300 292 289 292 294 295 299 302 305 309 311 314 314 308 308 309 303 301 301 301 300 300 302 299 298 297 296 300
195 204 209 207 214 232 235 237 258 267 277 294 300 306 302 292 287 282 291 296 299 306 314 316 316 315 316 315 313 309 309 309 306 304 306 307 303 300 303 303 303 301 300
196 204 209 234 231 245 233 246 263 277 292 301 302 304 298 281 274 283 290 300 310 315 320 319 319 319 321 319 314 311 309 310 309 311 310 304 300 299 302 303 305 303 301
199 203 212 233 230 242 259 266 277 291 297 298 295 296 286 264 262 274 285 304 316 322 325 322 321 319 318 318 318 316 315 315 317 317 311 305 300 300 301 299 299 299 300
194 194 219 226 242 258 279 284 299 298 294 296 221 250 263 273 274 275 286 306 324 322 319 318 319 320 320 320 322 323 321 318 319 316 319 314 311 306 305 303 301 297 298
180 184 213 201 246 270 294 302 304 274 150 151 309 338 302 287 306 288 295 308 318 322 326 326 322 319 323 321 324 325 326 327 324 318 316 318 313 310 307 301 296 298 295
178 174 206 236 265 289 303 300 268 192 198 329 320 325 314 307 319 304 318 318 337 333 327 316 319 312 328 328 329 332 333 328 319 312 316 317 316 313 311 306 305 305 303
172 166 198 243 287 298 287 263 253 241 330 331 321 314 314 323 317 317 319 334 344 339 329 321 326 321 328 331 336 335 330 323 314 313 315 317 319 320 322 318 312 308 306
166 163 228 288 256 248 273 242 233 300 335 327 326 329 337 340 347 350 334 337 334 337 338 334 331 331 331 336 335 333 330 323 317 312 318 321 323 329 322 317 314 311 307
196 200 199 240 253 286 250 228 263 314 328 333 347 5 23 13 9 357 346 329 328 338 338 335 334 336 340 340 336 333 333 329 328 320 318 315 321 322 313 311 309 304 303
185 177 176 235 248 241 228 225 292 335 2 356 26 35 29 15 12 352 346 342 339 336 334 340 334 344 339 342 339 340 342 337 337 328 318 318 325 319 312 313 310 307 302
182 198 211 195 209 205 194 230 298 13 20 43 44 36 20 9 1 355 350 345 340 332 326 334 333 342 346 344 348 352 352 353 345 341 333 332 326 318 317 318 320 323 319
183 194 197 194 189 188 190 227 89 78 60 54 44 27 14 5 358 351 345 340 341 336 314 324 335 340 349 345 352 354 353 351 354 355 347 337 332 322 319 317 319 315 307
184 190 186 184 183 178 184 138 118 105 77 50 37 14 2 359 348 343 340 344 347 333 324 326 338 344 348 344 351 359 355 355 354 356 350 344 334 327 322 319 317 319 310
182 181 181 177 170 165 154 138 122 111 75 39 18 358 353 354 343 345 342 347 343 331 326 327 339 346 346 349 359 359 359 1 2 2 355 351 340 338 340 343 323 312 318
177 170 173 166 157 149 141 134 118 93 52 18 357 349 352 350 353 348 344 343 339 334 333 331 336 346 348 359 3 360 2 6 12 10 3 353 355 358 348 345 328 324 329
172 168 159 152 145 139 132 121 105 68 24 1 353 352 357 357 355 348 346 342 338 336 340 341 343 349 358 1 360 358 0 5 7 11 12 8 9 3 358 346 345 344 340
160 157 150 142 136 127 118 108 86 48 14 355 358 1 360 0 351 351 349 341 335 339 342 347 348 354 360 359 358 357 359 3 8 6 5 13 9 13 3 0 357 355 5
153 148 142 138 133 128 115 100 63 28 7 0 1 6 9 6 4 2 356 340 337 344 347 347 354 357 1 358 357 358 1 1 355 0 355 16 18 20 14 16 8 14 20
158 152 143 143 136 120 104 84 43 13 11 6 13 13 15 14 6 8 4 358 351 349 348 351 358 0 358 359 358 356 2 7 360 353 354 12 26 34 33 31 22 26 26
145 145 142 144 138 121 114 83 43 26 18 16 18 18 16 16 11 17 14 8 6 360 0 4 359 2 1 357 2 0 4 8 12 15 10 2 29 42 43 40 38 35 34
145 145 147 147 141 129 114 71 48 31 15 22 17 14 17 18 16 16 15 15 20 22 13 9 3 359 359 4 11 5 12 13 15 15 24 20 21 39 46 43 47 46 47
147 151 150 143 135 121 102 73 54 31 21 20 17 16 17 24 18 19 14 16 18 15 11 10 11 12 18 15 27 22 21 16 24 17 27 31 36 29 36 45 48 53 58